FW9555 Weather Reports


Display with metric or nautical units.
time (UTC)temp
F
wind
direction
speed
MPH
gust
MPH
rain 1hr
in
rain 24hr
in
rain mn
in
humidity
%
barometer
mb
20260905162514 95 352 0.0 0.0 0.00 0.00 0.00 64 1016.8
20260905162009 93 325 1.0 3.0 0.00 0.00 0.00 66 1016.6
20260905161509 93 285 1.0 2.0 0.00 0.00 0.00 62 1016.6
20260905161006 94 41 0.0 2.0 0.00 0.00 0.00 62 1016.8
20260905160500 94 0 0.0 2.0 0.00 0.00 0.00 72 1016.8
20260905155959 93 111 0.0 3.0 0.00 0.00 0.00 68 1016.7
20260905155455 92 60 0.0 2.0 0.00 0.00 0.00 68 1016.6
20260905154953 92 8 0.0 2.0 0.00 0.00 0.00 66 1016.9
20260905154448 92 342 2.0 4.0 0.00 0.00 0.00 68 1016.9
20260905153944 93 0 0.0 0.0 0.00 0.00 0.00 73 1016.9
20260905153440 92 192 1.0 2.0 0.00 0.00 0.00 71 1016.9
20260905152939 91 8 0.0 2.0 0.00 0.00 0.00 68 1016.9
20260905152439 90 7 3.0 3.0 0.00 0.00 0.00 71 1016.7
20260905151934 89 0 1.0 2.0 0.00 0.00 0.00 74 1017.0
20260905151430 90 23 1.0 1.0 0.00 0.00 0.00 73 1016.7
20260905150925 89 180 0.0 0.0 0.00 0.00 0.00 76 1016.9
20260905150425 87 264 0.0 2.0 0.00 0.00 0.00 77 1017.0
20260905145921 86 345 0.0 3.0 0.00 0.00 0.00 77 1017.1
20260905145416 86 32 0.0 2.0 0.00 0.00 0.00 80 1017.1
20260905144915 86 327 0.0 2.0 0.00 0.00 0.00 83 1017.0
20260905144411 85 281 3.0 3.0 0.00 0.00 0.00 85 1016.9
20260905143910 84 288 0.0 3.0 0.00 0.00 0.00 84 1016.8
20260905143404 84 270 0.0 2.0 0.00 0.00 0.00 85 1016.9
20260905142904 83 0 0.0 2.0 0.00 0.00 0.00 86 1017.1
20260905142403 84 337 0.0 2.0 0.00 0.00 0.00 87 1017.1
20260905141858 82 326 0.0 2.0 0.00 0.00 0.00 88 1017.2
20260905141353 82 303 2.0 2.0 0.00 0.00 0.00 88 1017.1
20260905140850 82 274 3.0 4.0 0.00 0.00 0.00 88 1017.2
20260905140350 81 306 0.0 3.0 0.00 0.00 0.00 89 1017.3
20260905135848 80 301 2.0 2.0 0.00 0.00 0.00 91 1017.4
20260905135344 80 188 0.0 1.0 0.00 0.00 0.00 92 1017.5
20260905134839 80 270 0.0 1.0 0.00 0.00 0.00 92 1017.3
20260905134338 79 345 1.0 3.0 0.00 0.00 0.00 92 1017.2
20260905133833 79 319 2.0 2.0 0.00 0.00 0.00 95 1017.1
20260905133328 78 270 0.0 1.0 0.00 0.00 0.00 97 1017.4
20260905132827 78 278 0.0 1.0 0.00 0.00 0.00 97 1017.3
20260905132323 78 261 0.0 0.0 0.00 0.00 0.00 98 1017.2
20260905131823 77 261 0.0 2.0 0.00 0.00 0.00 98 1017.4
20260905131318 77 286 0.0 2.0 0.00 0.00 0.00 99 1017.5
20260905130814 76 90 0.0 2.0 0.00 0.00 0.00 99 1017.6
20260905130312 76 11 0.0 2.0 0.00 0.00 0.00 99 1017.1
20260905125808 75 6 0.0 0.0 0.00 0.00 0.00 99 1017.4
20260905125305 75 8 0.0 0.0 0.00 0.00 0.00 99 1017.3
20260905124759 75 0 0.0 2.0 0.00 0.00 0.00 99 1017.5
20260905124254 75 294 0.0 2.0 0.00 0.00 0.00 99 1017.3
20260905123749 75 294 0.0 2.0 0.00 0.00 0.00 99 1017.3
20260905123247 75 304 0.0 2.0 0.00 0.00 0.00 99 1017.4
20260905122746 75 334 2.0 2.0 0.00 0.00 0.00 99 1017.5
20260905122240 74 0 0.0 0.0 0.00 0.00 0.00 99 1017.4
20260905121735 74 345 0.0 1.0 0.00 0.00 0.00 99 1017.5
20260905121232 74 300 0.0 0.0 0.00 0.00 0.00 99 1017.8
20260905120730 74 300 0.0 0.0 0.00 0.00 0.00 99 1017.4
20260905120225 74 286 0.0 1.0 0.00 0.00 0.00 99 1017.5
20260905115720 73 346 0.0 0.0 0.00 0.00 0.00 99 1017.5
20260905115220 73 270 0.0 0.0 0.00 0.00 0.00 99 1017.4
20260905114715 73 90 0.0 0.0 0.00 0.00 0.00 99 1017.3
20260905114213 72 90 0.0 0.0 0.00 0.00 0.00 99 1017.3
20260905113713 72 90 0.0 0.0 0.00 0.00 0.00 99 1017.1
20260905113209 72 90 0.0 0.0 0.00 0.00 0.00 99 1016.9
20260905112708 72 90 0.0 0.0 0.00 0.00 0.00 99 1017.1
20260905112204 72 270 0.0 0.0 0.00 0.00 0.00 99 1016.8
20260905111703 72 270 0.0 0.0 0.00 0.00 0.00 99 1016.9
20260905111203 72 270 0.0 0.0 0.00 0.00 0.00 99 1016.7
20260905110702 72 270 0.0 0.0 0.00 0.00 0.00 99 1016.6
20260905110157 72 270 0.0 0.0 0.00 0.00 0.00 99 1016.7
20260905105653 73 270 0.0 0.0 0.00 0.00 0.00 99 1016.8
20260905105151 73 270 0.0 0.0 0.00 0.00 0.00 99 1016.4
20260905104646 73 270 0.0 1.0 0.00 0.00 0.00 99 1016.5
20260905104142 73 270 0.0 0.0 0.00 0.00 0.00 99 1016.3
20260905103637 72 270 0.0 0.0 0.00 0.00 0.00 99 1016.4
20260905103133 72 270 0.0 0.0 0.00 0.00 0.00 99 1016.2
20260905102629 72 270 0.0 0.0 0.00 0.00 0.00 99 1016.1
20260905102125 73 270 0.0 0.0 0.00 0.00 0.00 99 1016.1
20260905101623 73 270 0.0 0.0 0.00 0.00 0.00 99 1016.3
20260905101122 73 0 0.0 0.0 0.00 0.00 0.00 99 1016.2
20260905100618 73 0 1.0 1.0 0.00 0.00 0.00 99 1016.3
20260905100113 73 306 0.0 0.0 0.00 0.00 0.00 99 1016.2
20260905095607 73 306 0.0 0.0 0.00 0.00 0.00 99 1016.1
20260905095102 73 306 0.0 0.0 0.00 0.00 0.00 99 1016.3
20260905094558 73 352 0.0 0.0 0.00 0.00 0.00 99 1016.3
20260905094057 73 353 0.0 1.0 0.00 0.00 0.00 99 1016.1
20260905093556 73 0 0.0 0.0 0.00 0.00 0.00 99 1016.4
20260905093053 73 0 0.0 0.0 0.00 0.00 0.00 99 1016.0
20260905092553 73 0 0.0 0.0 0.00 0.00 0.00 99 1016.2
20260905092049 73 0 0.0 0.0 0.00 0.00 0.00 99 1016.4
20260905091548 73 0 0.0 0.0 0.00 0.00 0.00 99 1016.0
20260905091043 73 0 0.0 0.0 0.00 0.00 0.00 99 1016.4
20260905090542 73 0 0.0 0.0 0.00 0.00 0.00 99 1016.2
20260905090038 73 0 0.0 0.0 0.00 0.00 0.00 99 1016.2
20260905085536 73 48 0.0 0.0 0.00 0.00 0.00 99 1016.3
20260905085032 73 48 0.0 0.0 0.00 0.00 0.00 99 1016.3
20260905084526 74 0 0.0 0.0 0.00 0.00 0.00 99 1016.2
20260905084021 74 0 0.0 0.0 0.00 0.00 0.00 99 1016.3
20260905083516 74 23 0.0 0.0 0.00 0.00 0.00 99 1016.2
20260905083013 74 0 0.0 1.0 0.00 0.00 0.00 99 1016.3
20260905082508 74 346 0.0 0.0 0.00 0.00 0.00 99 1016.3
20260905082003 74 346 0.0 0.0 0.00 0.00 0.00 99 1016.6
20260905081457 73 0 0.0 0.0 0.00 0.00 0.00 99 1016.6
20260905080957 74 0 0.0 0.0 0.00 0.00 0.00 99 1016.5
20260905080452 74 0 0.0 0.0 0.00 0.00 0.00 99 1016.6
20260905075950 74 0 0.0 0.0 0.00 0.00 0.00 99 1016.8
20260905075445 74 0 0.0 0.0 0.00 0.00 0.00 99 1016.7
20260905074944 74 0 0.0 0.0 0.00 0.00 0.00 99 1016.6
20260905074440 74 0 0.0 0.0 0.00 0.00 0.00 99 1016.7
20260905073935 74 345 0.0 0.0 0.00 0.00 0.00 99 1016.9
20260905073430 74 352 0.0 0.0 0.00 0.00 0.00 99 1017.0
20260905072926 74 352 0.0 0.0 0.00 0.00 0.00 99 1016.8
20260905072420 75 77 0.0 2.0 0.00 0.00 0.00 99 1016.8
20260905071917 75 15 0.0 1.0 0.00 0.00 0.00 99 1016.8
20260905071414 74 66 0.0 0.0 0.00 0.00 0.00 99 1016.8
20260905070912 75 66 0.0 0.0 0.00 0.00 0.00 99 1017.0
20260905070409 74 66 0.0 0.0 0.00 0.00 0.00 99 1017.0
20260905065909 75 66 0.0 0.0 0.00 0.00 0.00 99 1016.9
20260905065407 75 66 0.0 0.0 0.00 0.00 0.00 99 1017.0
20260905064902 75 66 0.0 0.0 0.00 0.00 0.00 99 1016.9
20260905064357 75 66 0.0 0.0 0.00 0.00 0.00 99 1017.2
20260905063856 75 66 0.0 0.0 0.00 0.00 0.00 99 1017.3
20260905063352 75 57 0.0 2.0 0.00 0.00 0.00 99 1017.4
20260905062848 75 289 0.0 0.0 0.00 0.00 0.00 98 1017.2
20260905062342 75 289 0.0 1.0 0.00 0.00 0.00 98 1017.5
20260905061837 75 352 0.0 0.0 0.00 0.00 0.00 98 1017.5
20260905061332 75 40 0.0 0.0 0.00 0.00 0.00 98 1017.6
20260905060826 75 40 0.0 0.0 0.00 0.00 0.00 98 1017.7
20260905060323 76 40 0.0 0.0 0.00 0.00 0.00 98 1017.6
20260905055822 75 40 0.0 0.0 0.00 0.00 0.00 98 1017.8
20260905055317 75 40 0.0 0.0 0.00 0.00 0.00 98 1017.6
20260905054816 75 40 0.0 2.0 0.00 0.00 0.00 98 1017.8
20260905054313 75 345 0.0 0.0 0.00 0.00 0.00 98 1017.7
20260905053812 76 345 0.0 0.0 0.00 0.00 0.00 98 1017.8
20260905053308 76 345 0.0 0.0 0.00 0.00 0.00 98 1017.9
20260905052807 76 345 0.0 0.0 0.00 0.00 0.00 98 1017.9
20260905052306 76 345 0.0 0.0 0.00 0.00 0.00 98 1017.9
20260905051802 76 345 0.0 0.0 0.00 0.00 0.00 98 1018.0
20260905051258 76 98 0.0 0.0 0.00 0.00 0.00 98 1018.1
20260905050754 76 98 0.0 0.0 0.00 0.00 0.00 98 1018.3
20260905050251 76 98 0.0 0.0 0.00 0.00 0.00 98 1018.2
20260905045745 76 45 0.0 2.0 0.00 0.00 0.00 97 1018.2
20260905045240 76 270 0.0 0.0 0.00 0.00 0.00 97 1017.9
20260905044736 76 270 0.0 0.0 0.00 0.00 0.00 97 1018.0
20260905044231 76 15 0.0 0.0 0.00 0.00 0.00 97 1018.1
20260905043729 76 15 0.0 0.0 0.00 0.00 0.00 97 1018.4
20260905043224 76 15 0.0 0.0 0.00 0.00 0.00 97 1018.4
20260905042719 77 15 0.0 0.0 0.00 0.00 0.00 97 1018.2
20260905042218 77 15 0.0 0.0 0.00 0.00 0.00 97 1018.0
20260905041714 77 15 0.0 1.0 0.00 0.00 0.00 96 1017.9
20260905041209 77 65 0.0 0.0 0.00 0.00 0.00 96 1017.9
20260905040704 77 325 0.0 0.0 0.00 0.00 0.00 95 1018.0
20260905040202 77 325 0.0 0.0 0.00 0.00 0.00 95 1017.9
20260905035657 77 325 0.0 0.0 0.00 0.00 0.00 95 1017.8
20260905035154 77 325 0.0 0.0 0.00 0.00 0.00 95 1017.8
20260905034649 77 325 0.0 0.0 0.00 0.00 0.00 95 1017.8
20260905034149 77 325 0.0 0.0 0.00 0.00 0.00 95 1017.9
20260905033648 78 325 0.0 0.0 0.00 0.00 0.00 94 1018.0
20260905033144 78 325 0.0 0.0 0.00 0.00 0.00 94 1017.8
20260905032644 78 325 0.0 0.0 0.00 0.00 0.00 94 1017.8
20260905032138 78 325 0.0 0.0 0.00 0.00 0.00 93 1017.6
20260905031634 78 325 0.0 0.0 0.00 0.00 0.00 93 1017.6
20260905031129 78 325 0.0 0.0 0.00 0.00 0.00 93 1017.7
20260905030624 78 325 0.0 0.0 0.00 0.00 0.00 92 1017.7
20260905030120 78 325 0.0 0.0 0.00 0.00 0.00 92 1017.6
20260905025614 78 325 0.0 0.0 0.00 0.00 0.00 92 1017.7
20260905025110 78 325 0.0 0.0 0.00 0.00 0.00 92 1018.0
20260905024606 79 325 0.0 0.0 0.00 0.00 0.00 92 1018.2
20260905024101 79 325 0.0 0.0 0.00 0.00 0.00 92 1018.1
20260905023555 79 325 0.0 0.0 0.00 0.00 0.00 91 1018.1
20260905023050 79 325 0.0 0.0 0.00 0.00 0.00 91 1018.0
20260905022549 79 325 0.0 0.0 0.00 0.00 0.00 91 1017.9
20260905022045 79 325 0.0 0.0 0.00 0.00 0.00 91 1018.0
20260905021544 79 325 0.0 0.0 0.00 0.00 0.00 90 1017.8
20260905021040 80 325 0.0 0.0 0.00 0.00 0.00 90 1017.8
20260905020539 80 325 0.0 0.0 0.00 0.00 0.00 90 1017.7
20260905020035 80 325 0.0 0.0 0.00 0.00 0.00 89 1017.7
20260905015532 80 325 0.0 2.0 0.00 0.00 0.00 90 1018.0
20260905015027 80 306 0.0 1.0 0.00 0.00 0.00 90 1017.8
20260905014522 80 279 0.0 0.0 0.00 0.00 0.00 89 1017.8
20260905014018 80 279 0.0 0.0 0.00 0.00 0.00 89 1017.6
20260905013514 80 286 0.0 0.0 0.00 0.00 0.00 89 1017.8
20260905013010 80 286 0.0 0.0 0.00 0.00 0.00 88 1017.4
20260905012504 80 286 0.0 1.0 0.00 0.00 0.00 87 1017.6
20260905012001 81 279 0.0 0.0 0.00 0.00 0.00 87 1017.7
20260905011456 81 279 0.0 0.0 0.00 0.00 0.00 87 1017.7
20260905010952 81 279 0.0 0.0 0.00 0.00 0.00 86 1017.4
20260905010452 81 279 0.0 0.0 0.00 0.00 0.00 86 1017.7
20260905005948 82 279 0.0 0.0 0.00 0.00 0.00 85 1017.5
20260905005443 82 279 0.0 0.0 0.00 0.00 0.00 84 1017.3
20260905004938 82 279 0.0 0.0 0.00 0.00 0.00 84 1017.6
20260905004433 82 279 0.0 0.0 0.00 0.00 0.00 83 1017.6
20260905003928 82 279 0.0 0.0 0.00 0.00 0.00 82 1017.6
20260905003425 83 279 0.0 0.0 0.00 0.00 0.00 82 1017.5
20260905002920 83 279 0.0 0.0 0.00 0.00 0.00 82 1017.7
20260905002419 84 279 0.0 0.0 0.00 0.00 0.00 81 1017.6
20260905001913 84 279 0.0 0.0 0.00 0.00 0.00 79 1017.7
20260905001409 84 279 0.0 0.0 0.00 0.00 0.00 79 1017.6
20260905000903 85 279 0.0 0.0 0.00 0.00 0.00 77 1017.9
20260905000359 85 279 0.0 0.0 0.00 0.00 0.00 76 1017.7
20260904235854 85 279 0.0 0.0 0.00 0.00 0.00 76 1017.6
20260904235350 86 279 0.0 0.0 0.00 0.00 0.00 75 1017.4
20260904234850 87 279 0.0 0.0 0.00 0.00 0.00 74 1017.3
20260904234344 87 279 0.0 0.0 0.00 0.00 0.00 74 1017.4
20260904233840 88 279 0.0 0.0 0.00 0.00 0.00 72 1017.4
20260904233336 89 279 0.0 0.0 0.00 0.00 0.00 70 1017.3
20260904232833 89 279 0.0 0.0 0.00 0.00 0.00 70 1017.2
20260904232329 90 279 0.0 0.0 0.00 0.00 0.00 68 1017.0
20260904231824 91 279 0.0 0.0 0.00 0.00 0.00 68 1017.1
20260904231319 91 279 0.0 0.0 0.00 0.00 0.00 65 1017.1
20260904230814 92 279 0.0 0.0 0.00 0.00 0.00 65 1017.0
20260904230312 94 279 0.0 0.0 0.00 0.00 0.00 61 1016.8
20260904225808 96 279 0.0 0.0 0.00 0.00 0.00 58 1016.9
20260904225301 97 297 0.0 0.0 0.00 0.00 0.00 54 1016.8
20260904224800 100 279 0.0 1.0 0.00 0.00 0.00 52 1016.9
20260904224256 98 334 0.0 0.0 0.00 0.00 0.00 54 1016.8
20260904223755 98 0 0.0 0.0 0.00 0.00 0.00 53 1016.8
20260904223250 99 294 0.0 0.0 0.00 0.00 0.00 55 1017.0
20260904222746 100 346 0.0 0.0 0.00 0.00 0.00 54 1017.1
20260904222241 101 297 0.0 2.0 0.00 0.00 0.00 54 1016.9
20260904221741 100 66 0.0 0.0 0.00 0.00 0.00 53 1017.3
20260904221236 101 0 1.0 2.0 0.00 0.00 0.00 49 1017.2
20260904220731 100 353 0.0 3.0 0.00 0.00 0.00 50 1017.2
20260904220225 105 286 0.0 0.0 0.00 0.00 0.00 48 1017.0
20260904215725 105 270 0.0 0.0 0.00 0.00 0.00 48 1017.3
20260904215221 104 270 0.0 0.0 0.00 0.00 0.00 49 1017.3
20260904214716 103 270 0.0 1.0 0.00 0.00 0.00 50 1017.1
20260904214212 103 294 0.0 1.0 0.00 0.00 0.00 50 1017.3
20260904213709 106 286 0.0 1.0 0.00 0.00 0.00 47 1017.4
20260904213207 105 96 0.0 2.0 0.00 0.00 0.00 48 1017.2
20260904212707 101 57 0.0 0.0 0.00 0.00 0.00 53 1017.0
20260904212202 102 325 0.0 4.0 0.00 0.00 0.00 46 1017.2
20260904211701 104 285 0.0 0.0 0.00 0.00 0.00 47 1017.0
20260904211156 102 285 0.0 2.0 0.00 0.00 0.00 50 1017.0
20260904210651 103 270 0.0 0.0 0.00 0.00 0.00 50 1017.1
20260904210147 104 270 2.0 3.0 0.00 0.00 0.00 49 1016.9
20260904205642 102 286 0.0 0.0 0.00 0.00 0.00 50 1017.3
20260904205139 103 286 0.0 2.0 0.00 0.00 0.00 49 1017.2
20260904204634 100 66 0.0 1.0 0.00 0.00 0.00 51 1017.3
20260904204130 103 286 0.0 1.0 0.00 0.00 0.00 51 1017.3
20260904203626 98 81 0.0 0.0 0.00 0.00 0.00 53 1017.4
20260904203122 96 81 0.0 2.0 0.00 0.00 0.00 54 1017.2
20260904202618 97 81 0.0 1.0 0.00 0.00 0.00 53 1017.3
20260904202115 99 290 0.0 0.0 0.00 0.00 0.00 53 1017.5
20260904201614 101 270 0.0 2.0 0.00 0.00 0.00 54 1017.3
20260904201109 97 99 0.0 1.0 0.00 0.00 0.00 53 1017.5
20260904200609 98 264 0.0 3.0 0.00 0.00 0.00 52 1017.5
20260904200104 99 291 0.0 1.0 0.00 0.00 0.00 55 1017.5
20260904195602 99 328 0.0 2.0 0.00 0.00 0.00 53 1017.4
20260904195102 99 285 0.0 0.0 0.00 0.00 0.00 55 1017.6
20260904194556 98 320 0.0 2.0 0.00 0.00 0.00 55 1017.8
20260904194051 97 355 0.0 3.0 0.00 0.00 0.00 51 1018.1
20260904193546 97 349 0.0 3.0 0.00 0.00 0.00 55 1018.2
20260904193042 96 345 0.0 0.0 0.00 0.00 0.00 54 1018.4
20260904192541 96 290 3.0 3.0 0.00 0.00 0.00 55 1018.4
20260904192037 96 339 0.0 4.0 0.00 0.00 0.00 53 1018.4
20260904191534 96 270 2.0 3.0 0.00 0.00 0.00 54 1018.6
20260904191030 96 300 0.0 1.0 0.00 0.00 0.00 56 1018.6
20260904190525 96 315 2.0 5.0 0.00 0.00 0.00 54 1018.7
20260904190022 96 295 2.0 2.0 0.00 0.00 0.00 53 1018.9
20260904185518 96 11 2.0 2.0 0.00 0.00 0.00 56 1018.9
20260904185012 95 15 0.0 0.0 0.00 0.00 0.00 61 1019.0
20260904184507 94 15 0.0 0.0 0.00 0.00 0.00 66 1019.1
20260904184002 92 15 0.0 0.0 0.00 0.00 0.00 68 1019.2
20260904183456 90 15 0.0 0.0 0.00 0.00 0.00 71 1019.3
20260904182952 90 15 0.0 0.0 0.00 0.00 0.00 69 1019.2
20260904182448 91 15 0.0 0.0 0.00 0.00 0.00 67 1019.3
20260904181947 91 15 0.0 0.0 0.00 0.00 0.00 69 1019.2
20260904181443 91 15 0.0 0.0 0.00 0.00 0.00 67 1019.3
20260904180938 92 0 0.0 1.0 0.00 0.00 0.00 66 1019.4
20260904180433 92 0 0.0 2.0 0.00 0.00 0.00 60 1019.2
20260904175932 93 6 1.0 2.0 0.00 0.00 0.00 62 1019.3
20260904175432 95 59 2.0 2.0 0.00 0.00 0.00 61 1019.4
20260904174926 95 0 0.0 0.0 0.00 0.00 0.00 60 1019.4
20260904174421 96 277 0.0 2.0 0.00 0.00 0.00 66 1019.5
20260904173918 94 45 2.0 4.0 0.00 0.00 0.00 64 1019.5
20260904173412 95 270 3.0 4.0 0.00 0.00 0.00 61 1019.5
20260904172909 94 270 2.0 2.0 0.00 0.00 0.00 72 1019.7
20260904172408 94 319 2.0 2.0 0.00 0.00 0.00 67 1019.8
20260904171903 94 5 0.0 4.0 0.00 0.00 0.00 63 1019.7
20260904171358 94 343 2.0 2.0 0.00 0.00 0.00 64 1019.8
20260904170854 93 14 3.0 3.0 0.00 0.00 0.00 62 1020.1
20260904170349 93 292 4.0 4.0 0.00 0.00 0.00 63 1020.1
20260904165844 93 8 0.0 1.0 0.00 0.00 0.00 67 1020.0
20260904165343 92 280 3.0 5.0 0.00 0.00 0.00 63 1019.9
20260904164839 94 215 1.0 2.0 0.00 0.00 0.00 64 1019.9
20260904164338 93 81 0.0 0.0 0.00 0.00 0.00 67 1020.0
20260904163835 92 348 0.0 3.0 0.00 0.00 0.00 67 1020.0
20260904163334 93 0 3.0 3.0 0.00 0.00 0.00 69 1020.3